Regional Weather Roundup
Issued by NWS

Home | Current Version | Previous Version | Graphics & Text | Print | Product List | Glossary On
Versions: 1 2 3 4 5 6 7 8 9 10 11 12 13 14 15 16 17 18 19 20 21 22 23 24 25 26 27 28
000
ASUS45 KBOI 162010
RWRID

IDAHO REGIONAL WEATHER ROUNDUP
NATIONAL WEATHER SERVICE BOISE ID
100 PM MST SAT DEC 16 2017

NOTE: "FAIR" INDICATES FEW OR NO CLOUDS BELOW 12000 FEET
WITH NO SIGNIFICANT WEATHER AND/OR OBSTRUCTIONS TO VISIBILITY

IDZ012-014-162100-
SOUTHWEST IDAHO


CITY           SKY/WX    TMP DP  RH WIND       PRES   REMARKS
BOISE          SUNNY     32  26  78 NW18      30.10F WCI  20
CALDWELL       SUNNY     33  26  75 W12       30.15F WCI  24
MOUNTAIN HOME  SUNNY     35  33  93 NW31G40   30.05F WCI  22
$$

IDZ016-017-162100-
SOUTHCENTRAL IDAHO


CITY           SKY/WX    TMP DP  RH WIND       PRES   REMARKS
BURLEY         CLOUDY    30  24  78 W14G22    30.00S WCI  19
JEROME         CLOUDY    28  25  88 W9        30.00F WCI  19
TWIN FALLS     CLOUDY    29  25  85 W18       30.02R WCI  16
$$

IDZ019>023-162100-
SOUTHEAST IDAHO


CITY           SKY/WX    TMP DP  RH WIND       PRES   REMARKS
IDAHO FALLS    LGT SNOW  23  22  96 SW7       29.96S FOG     WCI  15
POCATELLO      SNOW      26  23  88 SW17      29.99S VSB 1/2 WCI  13
REXBURG        LGT SNOW  23  21  92 SW8       29.94S VSB 1   WCI  14
$$

IDZ006-010-011-018-031-032-162100-
CENTRAL IDAHO MOUNTAINS


CITY           SKY/WX    TMP DP  RH WIND       PRES   REMARKS
MCCALL         CLOUDY    29  21  72 W10       30.04R WCI  20
HAILEY         PTSUNNY   25  25 100 SE9       29.94S WCI  15
STANLEY          N/A     30  16  56 N6        29.95S WCI  24
SALMON         CLOUDY    33  22  63 SE3       30.06
CHALLIS        CLOUDY    34  20  56 N3        29.98S
$$

IDZ002-004-006-007-026-162100-
NORTHERN IDAHO


CITY           SKY/WX    TMP DP  RH WIND       PRES   REMARKS
LEWISTON       CLOUDY    31  30  96 CALM      30.30S FOG
LOWELL           N/A     33  30  88 CALM      30.29S
COEUR D`ALENE  CLOUDY    32  26  78 W6        30.24S WCI  26
MULLAN PASS    HAZE      21  15  78 CALM      30.02S VSB 1/4
$$




USA.gov is the U.S. government's official web portal to all federal, state and local government web resources and services.